Regional Weather Roundup
Issued by NWS

Home | Current Version | Previous Version | Graphics & Text | Print | Product List | Glossary On
Versions: 1 2 3 4 5 6 7 8 9 10 11 12 13 14 15 16 17 18 19 20 21 22 23 24 25 26 27 28 29 30 31 32 33 34 35 36 37 38 39 40 41 42 43 44 45 46 47 48 49 50
000
ASUS43 KMKX 060221
RWRWI

WISCONSIN REGIONAL WEATHER ROUNDUP
NATIONAL WEATHER SERVICE MILWAUKEE/SULLIVAN WI
800 PM CST FRI FEB 05 2016

NOTE: "FAIR" INDICATES FEW OR NO CLOUDS BELOW 12,000 FEET WITH NO
SIGNIFICANT WEATHER AND/OR OBSTRUCTIONS TO VISIBILITY.

WIZ001-002-006>008-014>016-023>028-060300-
NORTHWEST WISCONSIN

CITY           SKY/WX    TMP DP  RH WIND       PRES   REMARKS
SUPERIOR ARPT  CLOUDY    26  16  63 SW8       30.14F WCI  18
ASHLAND        CLOUDY    26  12  55 SW12      30.14R WCI  16
HAYWARD        CLOUDY    22  12  65 S16       30.14F WCI   8
SIREN          CLOUDY    25  16  70 SW10      30.16F WCI  14
CUMBERLAND     FLURRIES  21  14  73 S7        30.16F WCI  13
RICE LAKE      CLOUDY    21  14  73 S7        30.19F WCI  12
CHETEK         CLOUDY    21  13  71 S7        30.19F WCI  13
LADYSMITH      CLOUDY    20  12  71 S3        30.20F
EAU CLAIRE     CLOUDY    23  13  65 S8        30.21F WCI  14
MENOMONIE      MIX PCPN  25  15  66 S8        30.22F WCI  16
NEW RICHMOND   CLOUDY    24  17  74 S10       30.19F WCI  13
OSCEOLA        CLOUDY    25  19  77 S7        30.22S WCI  18
$$

WIZ003>005-009-010-017-018-060300-
NORTH CENTRAL WISCONSIN

CITY           SKY/WX    TMP DP  RH WIND       PRES   REMARKS
MANITOWISH WTR CLOUDY    22  10  60 SW12      30.11F WCI  10
ARBOR VITAE    CLOUDY    22  13  67 SW12G17   30.13F WCI  11
WOODRUFF       CLOUDY    22  13  67 SW12G17   30.13F WCI  11
RHINELANDER    CLOUDY    20  11  68 SW9       30.16F WCI   9
EAGLE RIVER    CLOUDY    22   8  55 SW6       30.13F WCI  14
LAND O LAKES   CLOUDY    24   8  51 S7        30.11F WCI  16
PHILLIPS       CLOUDY    21  12  69 SW7       30.15F WCI  12
TOMAHAWK       CLOUDY    19  12  73 CALM      30.18F
MEDFORD        CLOUDY    19  12  77 SW7       30.18S WCI   9
MERRILL        CLOUDY    18  13  82 S5        30.20F WCI  11
$$

WIZ029-030-035-036-043>047-060300-
CENTRAL WISCONSIN

CITY           SKY/WX    TMP DP  RH WIND       PRES   REMARKS
WAUSAU         CLOUDY    21  12  68 SW7       30.19F WCI  12
MOSINEE        MOCLDY    18  14  86 S5        30.22F WCI  11
MARSHFIELD     CLOUDY    20  11  68 SW6       30.20F WCI  12
STEVENS POINT  CLOUDY    16  13  88 S6        30.23F WCI   7
WAUPACA        CLOUDY    23  17  78 S3        30.26F
WAUTOMA        CLOUDY    24  18  78 S7        30.27F WCI  16
WISC RAPIDS    CLOUDY    21  14  74 S5        30.25F WCI  15
CAMP DOUGLAS   CLOUDY    24  20  83 S5        30.26F WCI  18
$$

WIZ011>013-019>022-031-037>040-048>050-060300-
NORTHEAST WISCONSIN

CITY           SKY/WX    TMP DP  RH WIND       PRES   REMARKS
ANTIGO         MOCLDY    15   9  75 S3        30.19F
SHAWANO        CLOUDY    23  15  71 CALM      30.25F
OCONTO         CLOUDY    16  12  84 CALM      30.26F
STURGEON BAY   CLOUDY    19  10  68 S8        30.27F WCI   9
GREEN BAY      CLOUDY    21  15  78 S6        30.27F WCI  13
MANITOWOC      CLOUDY    25  17  72 W6        30.29F WCI  18
APPLETON       CLOUDY    23  16  74 S8        30.25F WCI  14
CLINTONVILLE   CLOUDY    19  12  73 CALM      30.25F
OSHKOSH        CLOUDY    23  16  74 S7        30.27F WCI  15
$$

WIZ032>034-041-042-053>061-060300-
SOUTHWEST WISCONSIN

CITY           SKY/WX    TMP DP  RH WIND       PRES   REMARKS
LA CROSSE      CLOUDY    24  14  65 S12       30.27F WCI  13
SPARTA         CLOUDY    19  16  87 CALM      30.27F
VIROQUA        CLOUDY    22  15  74 S6        30.25F WCI  15
BOSCOBEL       CLOUDY    26  18  71 CALM      30.31F
PRAIRIE DU CHI CLOUDY    26  16  65 CALM      30.31F
PLATTEVILLE    CLOUDY    26  21  83 S6        30.30S WCI  19
$$

WIZ056-057-062-063-064-067-068-060300-
SOUTH CENTRAL WISCONSIN

CITY           SKY/WX    TMP DP  RH WIND       PRES   REMARKS
REEDSBURG      CLOUDY    24  17  73 S6        30.28F WCI  17
BARABOO/DELLS  CLOUDY    24  16  69 SW8       30.28F WCI  16
LONE ROCK      CLOUDY    23  16  74 CALM      30.31F
MINERAL POINT  CLOUDY    28  21  74 SW3       30.28F
MADISON        CLOUDY    27  17  66 CALM      30.30S
MIDDLETON      CLOUDY    28  19  70 CALM      30.30F
WATERTOWN      CLOUDY    26  20  76 SW5       30.30S WCI  21
MONROE         CLOUDY    28  23  80 S5        30.29S WCI  23
JANESVILLE     CLOUDY    30  21  69 SW5       30.32S WCI  25
$$

WIZ051-052-058>065-066-070>072-060300-
SOUTHEAST WISCONSIN

CITY           SKY/WX    TMP DP  RH WIND       PRES   REMARKS
MILWAUKEE      CLOUDY    29  15  56 SW5       30.31F WCI  24
WAUKESHA       CLOUDY    27  16  63 SW3       30.31F
MILWAUKEE/TIMM CLOUDY    28  16  59 W6        30.31F WCI  22
RACINE         CLOUDY    29  17  61 W5        30.33S WCI  24
BURLINGTON     CLOUDY    25  19  77 CALM      30.32S
KENOSHA        CLOUDY    28  20  71 W6        30.32S WCI  22
FOND DU LAC    CLOUDY    22  15  75 S5        30.29F WCI  16
SHEBOYGAN      CLOUDY    24  16  71 SW7       30.29F WCI  16
WEST BEND      CLOUDY    25  18  74 CALM      30.30S
JUNEAU         CLOUDY    23  16  73 S3        30.30F
$$

LSZ147-162-060300-
LAKE SUPERIOR

STATION/POSITION TIME  TEMP    WIND        PRES    WAVE
                       AIR SEA DIR/SP/G            HT/PER
                 (UTC) (F)     (DEG/KT/KT) (MB)    (FT/S)
DEVILS ISLAND    0200   29     240/ 23/ 26 1020.2F
PORT WING        0100   27     210/  7/ 11   N/A
SAXON HARBOR     0140   28                 1019.3F
$$

LMZ867-665-643>646-060300-
LAKE MICHIGAN

STATION/POSITION TIME  TEMP    WIND        PRES    WAVE
                       AIR SEA DIR/SP/G            HT/PER
                 (UTC) (F)     (DEG/KT/KT) (MB)    (FT/S)
CHAMBERS ISLAND  0100   21     180/  5/ 10 1025.1F
NORTHPORT PIER   0000   21     190/  4/  7 1025.4R
ALGOMA LAKESHORE 0111             CALM       N/A
KEWAUNEE LAKESHO 0100   22      CALM  /  3 1025.1F
SHEBOYGAN LAKESH 0200   26     250/  9/ 11 1027.2F
PORT WASHINGTON  0140   28     240/  2/  4 1027.4F
MILWAUKEE LAKESH 0210   30     260/  7/ 10   N/A
KENOSHA   LAKESH 0200   30     260/  7/  9 1026.8S
$$

TC  - TEMPERATURE IN CELSIUS
VSB - VISIBILITY IN STATUTE MILES
WCI - WIND CHILL INDEX
HX  - HEAT INDEX




USA.gov is the U.S. government's official web portal to all federal, state and local government web resources and services.